Regional Weather Roundup
Issued by NWS

Home | Current Version | Previous Version | Graphics & Text | Print | Product List | Glossary On
Versions: 1 2 3 4 5 6 7 8 9 10 11 12 13 14 15 16 17 18 19 20 21 22 23 24 25 26 27 28 29 30 31 32 33 34 35 36 37 38 39 40 41 42 43 44 45 46 47 48 49 50
000
ASUS43 KDMX 201006
RWRIA

WEATHER ROUNDUP FOR IOWA
NATIONAL WEATHER SERVICE DES MOINES IA
500 AM CDT SUN AUG 20 2017

NOTE: "FAIR" INDICATES FEW OR NO CLOUDS BELOW 12,000 FEET WITH NO
SIGNIFICANT WEATHER AND/OR OBSTRUCTIONS TO VISIBILITY.

* - THESE STATIONS ARE NOT NWS STATIONS...THUS NOT UNDER NWS
QUALITY CONTROL.  THEY ALSO DO NOT REPORT WEATHER SUCH
AS PRECIPITATION OR FOG.

IAZ001>003-012>014-020>022-031>034-043>046-201100-
   NORTHWEST IOWA

CITY           SKY/WX    TMP DP  RH WIND       PRES   REMARKS
CARROLL *      CLOUDY    68  64  88 S24G35    29.84F
CHEROKEE *     CLOUDY    69  64  85 CALM      29.86R
DENISON *      CLOUDY    66  64  94 SE17G28   29.81F
LE MARS *      CLOUDY   102 N/A N/A CALM      29.85R
ORANGE CITY *  CLOUDY    70  66  88 SW5       29.86F
SHELDON *      CLOUDY    70  63  78 SW8G14    29.84F
SIOUX CITY     CLOUDY    66  64  93 S3        29.85S
SPENCER        CLOUDY    69  63  81 S3        29.87R
STORM LAKE *   CLOUDY    66  63  88 S8        29.87R
$$

IAZ055>058-069>071-079>083-090>094-201100-
   SOUTHWEST IOWA

CITY           SKY/WX    TMP DP  RH WIND       PRES   REMARKS
ATLANTIC *     RAIN      68  66  94 CALM      29.92F
AUDUBON *      RAIN      66  64  94 E6        29.94F
CLARINDA *       N/A     70  70 100 E5        29.93F
COUNCIL BLFS * CLOUDY    68  68 100 S12       29.89F
CRESTON *      RAIN      68  66  94 N6G13     30.01F
HARLAN  *      LGT RAIN  66  66 100 E7        29.92F
LAMONI         TSTM      68  67  96 NW25G39   30.00R FOG
RED OAK *      LGT RAIN  70  68  94 E9        29.87F
SHENANDOAH *   CLOUDY    68  66  94 SE8       29.87F
$$

IAZ047>049-059>061-072>074-084-201100-
   CENTRAL IOWA

CITY           SKY/WX    TMP DP  RH WIND       PRES   REMARKS
AMES           CLOUDY    68  67  96 SW15      29.92R
ANKENY *       HVY RAIN  68  66  94 W17G24    29.99R
BOONE *        CLOUDY    68  64  88 SW15G22   29.91F
CHARITON *     LGT RAIN  68  64  88 SE7       29.93R
DES MOINES     TSTM      70  67  90 W17G32    29.97R FOG
GRINNELL*      CLOUDY    67  64  90 SE5       29.94F
KNOXVILLE *    CLOUDY    70  61  73 SE6       29.91F
MARSHALLTOWN     N/A     67  65  93 SE8       29.90F
NEWTON *       CLOUDY    66  64  94 SE7       29.92F
PELLA *        CLOUDY    67  64  91 SE3       29.94S
PERRY *        RAIN      68  66  94 SW12      29.97S
$$

IAZ004>006-015-016-023>025-035-036-201100-
   NORTH CENTRAL IOWA

CITY           SKY/WX    TMP DP  RH WIND       PRES   REMARKS
ALGONA *       CLOUDY    68  68 100 S7        29.89R
CLARION *      CLOUDY    68  66  94 S7        29.91R
ESTHERVILLE    CLOUDY    64  63  96 S7        29.88R
FORT DODGE *   CLOUDY    72  63  73 S12       29.90R
MASON CITY     CLOUDY    64  62  93 S6        29.93R
FOREST CITY *    N/A     64  64 100 SE5       29.90R
WEBSTER CITY * CLOUDY    70  63  78 VRB6      29.88R
IOWA FALLS *     N/A     67  65  93 CALM      29.92R
$$

IAZ007>011-017>019-026>030-037>042-050>054-066-201100-
   NORTHEAST IOWA

CITY           SKY/WX    TMP DP  RH WIND       PRES   REMARKS
CEDAR RAPIDS   CLOUDY    66  64  93 SE5       29.95S
CHARLES CITY * CLOUDY    64  64 100 SE7       29.93R
CLINTON *      CLEAR     62  59  90 E5        29.99R
DECORAH *      CLOUDY    63  61  94 SE7       29.93F
DUBUQUE        MOCLDY    63  59  87 S5        29.99R
MONTICELLO *   CLOUDY    64  61  88 SE5       29.96F
OELWEIN *      CLOUDY    64  63  94 SE9       29.95S
WATERLOO       CLOUDY    66  62  87 SE10      29.91S
$$

IAZ064-065-067-068-078-201100-
   EAST CENTRAL IOWA

CITY           SKY/WX    TMP DP  RH WIND       PRES   REMARKS
DAVENPORT      CLOUDY    64  60  87 SE6       29.99S
IOWA CITY      MOCLDY    66  62  87 CALM      29.97S
MT. PLEASANT * CLOUDY    65  65 100 CALM      29.95S
MUSCATINE *    CLOUDY   N/A N/A N/A CALM      29.96S
QUAD CITIES    PTCLDY    65  60  84 E5        29.96F
$$

IAZ062-063-075>077-085>089-095>099-201100-
   SOUTHEAST IOWA

CITY           SKY/WX    TMP DP  RH WIND       PRES   REMARKS
BURLINGTON     CLOUDY    67  66  97 CALM      29.95S
FAIRFIELD *    CLOUDY    68  64  88 SE5       29.94F
FORT MADISON * CLOUDY    70  66  88 S6        29.96S
KEOKUK *       CLOUDY    68  66  94 SE3       29.94S
OSKALOOSA *      N/A     66  65  96 SE3       29.94R
OTTUMWA        CLOUDY    69  66  90 E3        29.92F
WASHINGTON *   CLOUDY    64  64 100 SE5       29.95F
$$

ABBREVIATIONS USED IN REMARKS
   TC - TEMPERATURES IN CELSIUS
  WCI - WIND CHILL INDEX
   HX - HEAT INDEX
  VSB - VISIBILITY
$$





USA.gov is the U.S. government's official web portal to all federal, state and local government web resources and services.